Monett, MO

11:37 AM CST on December 05, 2019 (GMT -0600)
Monett

Weather History for KHFJ - November, 2019

Change the Weather History Date:

Wednesday, November 20, 2019

  Actual Average (KJLN) Record (KJLN)
Temperature  
Mean Temperature 56 °F -  
Max Temperature 68 °F 54 °F 75 °F (2007)
Min Temperature 44 °F 35 °F 21 °F (2006)
Degree Days  
Heating Degree Days 9    
Growing Degree Days 6 (Base 50)    
Moisture  
Dew Point 39 °F    
Average Humidity 56    
Maximum Humidity 82    
Minimum Humidity 33    
Precipitation  
Precipitation 0.03 in - - ()
Sea Level Pressure  
Sea Level Pressure 29.97 in    
Wind  
Wind Speed 10 mph ()    
Max Wind Speed 18 mph    
Max Gust Speed 28 mph    
Visibility 9.9 miles    
Events Rain    
Averages and records for this station are not official NWS values.
T = Trace of Precipitation, MM = Missing Value Source: Averaged Metar Reports

Daily Weather History Graph

Daily Weather History Graph

Search for Another Location

Airport or City:

Astronomy

Nov. 20, 2019 Rise Set
Actual Time 6:59 AM CST 5:03 PM CST
Civil Twilight 6:31 AM CST 5:31 PM CST
Nautical Twilight 5:59 AM CST 6:03 PM CST
Astronomical Twilight 5:28 AM CST 6:33 PM CST
Moon No Moon Rise 1:47 PM CST (11/20)
Length of Visible Light 11h 00m
Length of Day
10h 04m
Last Quarter, 40% of the Moon is Illuminated
Nov 20
Last Quarter
Nov 26
New
Dec 4
First Quarter
Dec 11
Full
Dec 18
Last Quarter

Hourly Weather History & Observations

Time (CST) Temp. Windchill Dew Point Humidity Pressure Visibility Wind Dir Wind Speed Gust Speed Precip Events Conditions
12:15 AM 46.4 °F 42.9 °F 32.0 °F 57% 29.99 in 10.0 mi ESE 6.9 mph - N/A   Clear
12:35 AM 46.4 °F 42.4 °F 32.0 °F 57% 29.98 in 10.0 mi ESE 8.1 mph - N/A   Clear
12:55 AM 46.4 °F 42.4 °F 32.0 °F 57% 29.98 in 10.0 mi ESE 8.1 mph - N/A   Clear
1:15 AM 46.4 °F 42.4 °F 32.0 °F 57% 29.98 in 10.0 mi SE 8.1 mph - N/A   Clear
1:40 AM 46.4 °F 42.4 °F 32.0 °F 57% 29.98 in 10.0 mi SE 8.1 mph - N/A   Clear
1:55 AM 46.4 °F 42.4 °F 32.0 °F 57% 29.98 in 10.0 mi ESE 8.1 mph - N/A   Clear
2:15 AM 44.6 °F 40.2 °F 32.0 °F 61% 29.99 in 10.0 mi ESE 8.1 mph - N/A   Clear
2:35 AM 44.6 °F 40.7 °F 32.0 °F 61% 29.99 in 10.0 mi ESE 6.9 mph - N/A   Clear
3:15 AM 44.6 °F 40.2 °F 32.0 °F 61% 29.99 in 10.0 mi ESE 8.1 mph - N/A   Clear
3:35 AM 46.4 °F 41.5 °F 32.0 °F 57% 29.99 in 10.0 mi ESE 10.4 mph - N/A   Clear
3:55 AM 44.6 °F 40.2 °F 32.0 °F 61% 29.99 in 10.0 mi ESE 8.1 mph - N/A   Clear
4:15 AM 46.4 °F 41.9 °F 32.0 °F 57% 29.99 in 7.0 mi ESE 9.2 mph - N/A   Clear
4:35 AM 46.4 °F 41.9 °F 32.0 °F 57% 29.99 in 10.0 mi SE 9.2 mph - N/A   Clear
4:55 AM 46.4 °F 41.5 °F 32.0 °F 57% 29.99 in 10.0 mi SE 10.4 mph - N/A   Clear
5:15 AM 46.4 °F 41.9 °F 32.0 °F 57% 29.99 in 10.0 mi SE 9.2 mph - N/A   Clear
5:35 AM 46.4 °F 41.9 °F 32.0 °F 57% 29.98 in 10.0 mi ESE 9.2 mph - N/A   Clear
5:55 AM 46.4 °F 41.9 °F 32.0 °F 57% 29.99 in 10.0 mi SE 9.2 mph - N/A   Clear
6:15 AM 46.4 °F 41.9 °F 32.0 °F 57% 29.99 in 10.0 mi ESE 9.2 mph - N/A   Clear
6:35 AM 46.4 °F 42.4 °F 33.8 °F 62% 29.99 in 10.0 mi SE 8.1 mph - N/A   Clear
6:55 AM 46.4 °F 41.1 °F 33.8 °F 62% 29.99 in 10.0 mi SE 11.5 mph - N/A   Clear
7:15 AM 48.2 °F - 33.8 °F 58% 29.99 in 10.0 mi SE 11.5 mph - N/A   Clear
7:35 AM 46.4 °F 41.1 °F 33.8 °F 62% 29.99 in 10.0 mi SE 11.5 mph - N/A   Clear
8:15 AM 50.0 °F - 35.6 °F 58% 30.00 in 10.0 mi SE 9.2 mph - N/A   Clear
8:35 AM 51.8 °F - 35.6 °F 54% 30.00 in 10.0 mi SE 10.4 mph - N/A   Clear
8:55 AM 53.6 °F - 37.4 °F 54% 30.00 in 10.0 mi SE 13.8 mph - N/A   Clear
9:15 AM 55.4 °F - 37.4 °F 51% 30.01 in 10.0 mi SE 10.4 mph 19.6 mph N/A   Clear
9:35 AM 57.2 °F - 41.0 °F 55% 30.00 in 10.0 mi SE 11.5 mph - N/A   Clear
9:55 AM 59.0 °F - 41.0 °F 51% 30.01 in 10.0 mi SSE 12.7 mph 21.9 mph N/A   Clear
10:15 AM 60.8 °F - 41.0 °F 48% 30.00 in 10.0 mi SSE 11.5 mph 19.6 mph N/A   Clear
10:55 AM 60.8 °F - 42.8 °F 52% 29.99 in 10.0 mi SSE 16.1 mph 21.9 mph N/A   Clear
11:15 AM 60.8 °F - 42.8 °F 52% 29.99 in 10.0 mi SSE 13.8 mph 18.4 mph N/A   Clear
11:35 AM 62.6 °F - 42.8 °F 48% 29.98 in 10.0 mi SSE 12.7 mph 19.6 mph N/A   Clear
11:55 AM 62.6 °F - 42.8 °F 48% 29.97 in 10.0 mi SSE 12.7 mph 19.6 mph N/A   Clear
12:15 PM 64.4 °F - 41.0 °F 42% 29.96 in 10.0 mi SSE 13.8 mph 21.9 mph N/A   Clear
12:35 PM 64.4 °F - 41.0 °F 42% 29.95 in 10.0 mi SSE 15.0 mph - N/A   Clear
2:15 PM 68.0 °F - 37.4 °F 33% 29.91 in 10.0 mi SSE 18.4 mph 27.6 mph N/A   Clear
2:55 PM 68.0 °F - 42.8 °F 40% 29.89 in 10.0 mi SSE 17.3 mph 20.7 mph N/A   Clear
3:15 PM 66.2 °F - 42.8 °F 43% 29.89 in 10.0 mi SSE 15.0 mph 20.7 mph N/A   Clear
3:35 PM 66.2 °F - 44.6 °F 46% 29.90 in 10.0 mi SSE 16.1 mph 25.3 mph N/A   Clear
3:55 PM 64.4 °F - 44.6 °F 49% 29.92 in 10.0 mi SSE 12.7 mph 24.2 mph N/A   Clear
4:15 PM 64.4 °F - 44.6 °F 49% 29.92 in 10.0 mi SSE 13.8 mph 26.5 mph N/A   Scattered Clouds
4:35 PM 64.4 °F - 44.6 °F 49% 29.92 in 10.0 mi SSE 11.5 mph 17.3 mph N/A   Mostly Cloudy
4:55 PM 62.6 °F - 44.6 °F 52% 29.94 in 10.0 mi SSE 9.2 mph - N/A   Mostly Cloudy
5:15 PM 62.6 °F - 44.6 °F 52% 29.95 in 10.0 mi SSE 11.5 mph 20.7 mph N/A   Mostly Cloudy
5:35 PM 60.8 °F - 46.4 °F 59% 29.96 in 10.0 mi SSE 11.5 mph 18.4 mph N/A Rain Light Rain
5:55 PM 60.8 °F - 46.4 °F 59% 29.96 in 10.0 mi SSE 9.2 mph - N/A Rain Light Rain
6:15 PM 60.8 °F - 46.4 °F 59% 29.96 in 10.0 mi SSE 10.4 mph - N/A   Mostly Cloudy
6:35 PM 60.8 °F - 44.6 °F 55% 29.96 in 10.0 mi SSE 11.5 mph - N/A   Mostly Cloudy
6:55 PM 60.8 °F - 44.6 °F 55% 29.98 in 10.0 mi SSE 10.4 mph - N/A   Mostly Cloudy
7:35 PM 59.0 °F - 46.4 °F 63% 29.96 in 10.0 mi SE 10.4 mph - N/A   Overcast
7:55 PM 59.0 °F - 46.4 °F 63% 29.96 in 10.0 mi SE 8.1 mph - N/A   Overcast
8:55 PM 60.8 °F - 44.6 °F 55% 29.95 in 10.0 mi SSE 16.1 mph 21.9 mph N/A   Mostly Cloudy
9:15 PM 59.0 °F - 44.6 °F 59% 29.94 in 10.0 mi SSE 15.0 mph 21.9 mph N/A Rain Light Rain
9:35 PM 57.2 °F - 46.4 °F 67% 29.93 in 10.0 mi SSE 13.8 mph 20.7 mph N/A Rain Light Rain
10:15 PM 57.2 °F - 46.4 °F 67% 29.91 in 10.0 mi SE 15.0 mph 21.9 mph N/A   Overcast
10:35 PM 59.0 °F - 46.4 °F 63% 29.91 in 10.0 mi SSE 13.8 mph 20.7 mph N/A   Overcast
10:55 PM 57.2 °F - 48.2 °F 72% 29.92 in 10.0 mi SSE 12.7 mph 18.4 mph N/A Rain Light Rain
11:40 PM 57.2 °F - 50.0 °F 77% 29.93 in 10.0 mi SSE 12.7 mph 18.4 mph 0.01 in Rain Rain
11:55 PM 55.4 °F - 50.0 °F 82% 29.91 in 7.0 mi SSE 15.0 mph 20.7 mph 0.03 in Rain Rain